Home   Weather   Greenwich Borough   Past weeks

Flag for United Kingdom Past Weather in Greenwich Borough, England, United Kingdom — Yesterday and Last 2 Weeks

Now
41 °F

Passing clouds.


Feels Like: 36 °F
Forecast: 36 / 51 °F
Wind: 8 mph from North

Location: Biggin Hill Airport

Current Time: Apr 25, 2017 at 9:30:32 pm

Latest Report: Apr 25, 2017 at 8:20 pm


Visibility: N/A

Pressure: 29.92 "Hg

Humidity: 70%

Dew Point: 32 °F

Location of Greenwich BoroughLocation

Past Weather in Greenwich Borough — Graph

°F

Greenwich Borough Temperature Yesterday

Maximum temperature yesterday: 55 °F (at 10:20 am)
Minimum temperature yesterday: 46 °F (at 7:20 am)
Average temperature yesterday: 52 °F

High & Low Weather Summary for the Past Weeks

 TemperatureHumidityPressure
High59 °F (Apr 11, 4:50 pm)100% (Apr 22, 11:50 am)30.63 "Hg (Apr 22, 11:50 am)
Low36 °F (Apr 19, 6:50 am)32% (Apr 25, 3:20 pm)29.86 "Hg (Apr 24, 6:20 pm)
Average52 °F60%30.23 "Hg
* Reported Apr 10 8:20 pm — Apr 25 8:20 pm, Greenwich Borough, Weather by CustomWeather, © 2017

Note: Actual official high and low records may vary slightly from our data, if they occured in-between our weather recording intervals... More about our weather records

Advertising

Greenwich Borough Weather History for the Previous 24 Hours

Scroll right to see more
 ConditionsComfort  
Time TempWeatherWind HumidityBarometerVisibility
8:20 pm
Tue, Apr 25
41 °FPassing clouds.8 mph70%29.92 "HgN/A
7:50 pm41 °FPassing clouds.14 mph70%29.92 "HgN/A
7:20 pm43 °FPassing clouds.15 mph66%29.92 "HgN/A
6:50 pm46 °FPassing clouds.10 mph43%29.89 "HgN/A
6:20 pm46 °FPassing clouds.13 mph50%29.89 "HgN/A
5:50 pm48 °FScattered showers. Scattered clouds.14 mph43%29.89 "HgN/A
5:20 pm48 °FScattered showers. Scattered clouds.9 mph32%29.89 "HgN/A
4:50 pm50 °FScattered showers. Scattered clouds.9 mph35%29.89 "HgN/A
4:20 pm48 °FPassing clouds.9 mph32%29.89 "HgN/A
3:50 pm48 °FPassing clouds.10 mph32%29.92 "HgN/A
3:20 pm48 °FPassing clouds.12 mph32%29.92 "HgN/A
2:50 pm48 °FPassing clouds.12 mph37%29.92 "HgN/A
2:20 pm46 °FPassing clouds.12 mph37%29.92 "HgN/A
1:50 pm48 °FPassing clouds.12 mph37%29.92 "HgN/A
1:20 pm46 °FPassing clouds.10 mph37%29.92 "HgN/A
12:50 pm45 °FScattered clouds.9 mph39%29.92 "HgN/A
12:20 pm45 °FScattered clouds.9 mph39%29.92 "HgN/A
11:50 am45 °FScattered clouds.7 mph46%29.92 "HgN/A
11:20 am45 °FScattered clouds.10 mph42%29.92 "HgN/A
10:50 am43 °FScattered clouds.10 mph42%29.92 "HgN/A
9:50 am43 °FPassing clouds.13 mph49%29.92 "HgN/A
9:20 am41 °FPassing clouds.9 mph53%29.92 "HgN/A
8:50 am39 °FPassing clouds.10 mph65%29.92 "HgN/A
7:50 am37 °FPassing clouds.9 mph65%29.92 "HgN/A
7:20 am37 °FScattered clouds.8 mph65%29.92 "HgN/A
Weather by CustomWeather, © 2017

See weather overviewHow to use our weather pages